Weather History for New Ulm, MN

Change the Weather History Date:

Monday, April 15, 2013

  Actual Average Record
Temperature  
Mean Temperature 36 °F -  
Max Temperature 39 °F 59 °F 91 °F (2002)
Min Temperature 32 °F 35 °F 15 °F (2014)
Degree Days  
Heating Degree Days 30    
Moisture  
Dew Point 29 °F    
Average Humidity 76    
Maximum Humidity 81    
Minimum Humidity 70    
Precipitation  
Precipitation 0.00 in - - ()
Sea Level Pressure  
Sea Level Pressure 29.73 in    
Wind  
Wind Speed 18 mph (WSW)    
Max Wind Speed 29 mph    
Max Gust Speed 34 mph    
Visibility 10 miles    
Events      
Averages and records for this station are not official NWS values.
T = Trace of Precipitation, MM = Missing Value Source: NWS Daily Summary

Daily Weather History Graph

Daily Weather History Graph

Search for Another Location

Airport:

Trip Planner

Search our weather history database for the weather conditions in past years. The results will help you decide how hot, cold, wet, or windy it might be!

Date:

Astronomy

Apr. 15, 2013 Rise Set
Actual Time 6:33 AM CDT 8:02 PM CDT
Civil Twilight 6:03 AM CDT 8:33 PM CDT
Nautical Twilight 5:27 AM CDT 9:09 PM CDT
Astronomical Twilight 4:48 AM CDT 9:49 PM CDT
Moon 9:54 AM CDT (4/15) 12:22 AM CDT (4/15)
Length of Visible Light 14h 29m
Length of Day
13h 28m
Waxing Crescent, 25% of the Moon is Illuminated
Apr 15
Waxing Crescent
Apr 18
First Quarter
Apr 25
Full
May 2
Last Quarter
May 9
New

Hourly Weather History & Observations

Time (CDT) Temp. Windchill Dew Point Humidity Pressure Visibility Wind Dir Wind Speed Gust Speed Precip Events Conditions
12:13 AM 35.6 °F 26.6 °F 30.2 °F 81% 29.51 in 10.0 mi SW 13.8 mph - N/A   Clear
12:32 AM 35.6 °F 26.6 °F 30.2 °F 81% 29.52 in 10.0 mi SW 13.8 mph - N/A   Clear
12:53 AM 35.6 °F 26.6 °F 30.2 °F 81% 29.52 in 10.0 mi SW 13.8 mph - N/A   Clear
1:13 AM 35.6 °F 27.5 °F 30.2 °F 81% 29.52 in 10.0 mi SW 11.5 mph - N/A   Scattered Clouds
1:33 AM 35.6 °F 26.2 °F 30.2 °F 81% 29.52 in 10.0 mi SW 15.0 mph - N/A   Scattered Clouds
1:53 AM 35.6 °F 25.5 °F 28.4 °F 75% 29.52 in 10.0 mi SW 17.3 mph - N/A   Clear
2:12 AM 35.6 °F 25.5 °F 28.4 °F 75% 29.52 in 10.0 mi WSW 17.3 mph - N/A   Scattered Clouds
2:33 AM 33.8 °F 25.3 °F 28.4 °F 81% 29.53 in 10.0 mi WSW 11.5 mph - N/A   Scattered Clouds
2:53 AM 33.8 °F 25.8 °F 28.4 °F 81% 29.53 in 10.0 mi SW 10.4 mph - N/A   Scattered Clouds
3:12 AM 33.8 °F 21.0 °F 26.6 °F 75% 29.54 in 10.0 mi WSW 25.3 mph 33.4 mph N/A   Scattered Clouds
3:33 AM 33.8 °F 22.5 °F 24.8 °F 70% 29.54 in 10.0 mi WSW 19.6 mph 28.8 mph N/A   Clear
3:53 AM 33.8 °F 22.5 °F 26.6 °F 75% 29.55 in 10.0 mi WSW 19.6 mph 26.5 mph N/A   Mostly Cloudy
4:12 AM 33.8 °F 21.0 °F 26.6 °F 75% 29.54 in 10.0 mi WSW 25.3 mph 28.8 mph N/A   Overcast
4:33 AM 33.8 °F 21.3 °F 24.8 °F 70% 29.54 in 10.0 mi WSW 24.2 mph 32.2 mph N/A   Overcast
4:53 AM 33.8 °F 21.6 °F 24.8 °F 70% 29.55 in 10.0 mi WSW 23.0 mph 32.2 mph N/A   Overcast
5:12 AM 33.8 °F 22.5 °F 24.8 °F 70% 29.55 in 10.0 mi SW 19.6 mph 23.0 mph N/A   Overcast
5:33 AM 32.0 °F 20.5 °F 24.8 °F 75% 29.55 in 10.0 mi WSW 18.4 mph 24.2 mph N/A   Overcast
5:53 AM 32.0 °F 20.8 °F 26.6 °F 80% 29.56 in 10.0 mi SW 17.3 mph 23.0 mph N/A   Overcast
6:12 AM 32.0 °F 21.2 °F 26.6 °F 80% 29.57 in 10.0 mi SW 16.1 mph 24.2 mph N/A   Overcast
6:33 AM 32.0 °F 21.2 °F 26.6 °F 80% 29.57 in 10.0 mi SW 16.1 mph 25.3 mph N/A   Overcast
6:53 AM 33.8 °F 21.9 °F 26.6 °F 75% 29.58 in 10.0 mi WSW 21.9 mph 26.5 mph N/A   Overcast
7:12 AM 33.8 °F 22.2 °F 26.6 °F 75% 29.59 in 10.0 mi WSW 20.7 mph 26.5 mph N/A   Overcast
7:33 AM 33.8 °F 22.8 °F 26.6 °F 75% 29.61 in 10.0 mi SW 18.4 mph 25.3 mph N/A   Overcast
7:53 AM 33.8 °F 22.2 °F 28.4 °F 81% 29.61 in 10.0 mi WSW 20.7 mph - N/A   Overcast
8:12 AM 33.8 °F 22.5 °F 28.4 °F 81% 29.61 in 10.0 mi WSW 19.6 mph - N/A   Overcast
8:33 AM 33.8 °F 23.2 °F 28.4 °F 81% 29.60 in 10.0 mi WSW 17.3 mph - N/A   Overcast
8:53 AM 35.6 °F 24.8 °F 28.4 °F 75% 29.61 in 10.0 mi WSW 19.6 mph - N/A   Mostly Cloudy
9:13 AM 35.6 °F 24.8 °F 28.4 °F 75% 29.61 in 10.0 mi WSW 19.6 mph 25.3 mph N/A   Scattered Clouds
9:33 AM 35.6 °F 25.9 °F 28.4 °F 75% 29.63 in 10.0 mi WSW 16.1 mph 25.3 mph N/A   Scattered Clouds
9:52 AM 35.6 °F 24.8 °F 28.4 °F 75% 29.65 in 10.0 mi SW 19.6 mph 24.2 mph N/A   Mostly Cloudy
10:13 AM 35.6 °F 24.8 °F 28.4 °F 75% 29.67 in 10.0 mi WSW 19.6 mph 23.0 mph N/A   Mostly Cloudy
10:33 AM 35.6 °F 23.4 °F 30.2 °F 81% 29.68 in 10.0 mi WSW 25.3 mph 31.1 mph N/A   Mostly Cloudy
10:52 AM 37.4 °F 26.6 °F 30.2 °F 75% 29.69 in 10.0 mi WSW 21.9 mph 27.6 mph N/A   Scattered Clouds
11:13 AM 37.4 °F 27.2 °F 30.2 °F 75% 29.71 in 10.0 mi WSW 19.6 mph 23.0 mph N/A   Scattered Clouds
11:32 AM 37.4 °F 26.4 °F 30.2 °F 75% 29.72 in 10.0 mi WSW 23.0 mph - N/A   Scattered Clouds
11:53 AM 37.4 °F 26.1 °F 30.2 °F 75% 29.73 in 10.0 mi West 24.2 mph 28.8 mph N/A   Scattered Clouds
12:13 PM 37.4 °F 26.1 °F 30.2 °F 75% 29.74 in 10.0 mi WSW 24.2 mph 28.8 mph N/A   Scattered Clouds
12:32 PM 37.4 °F 26.4 °F 30.2 °F 75% 29.75 in 10.0 mi WSW 23.0 mph 32.2 mph N/A   Scattered Clouds
12:53 PM 37.4 °F 26.4 °F 30.2 °F 75% 29.77 in 10.0 mi WSW 23.0 mph 33.4 mph N/A   Scattered Clouds
1:13 PM 37.4 °F 26.4 °F 30.2 °F 75% 29.78 in 10.0 mi West 23.0 mph 28.8 mph N/A   Scattered Clouds
1:32 PM 37.4 °F 26.4 °F 30.2 °F 75% 29.79 in 10.0 mi West 23.0 mph 32.2 mph N/A   Scattered Clouds
1:53 PM 37.4 °F 25.4 °F 30.2 °F 75% 29.79 in 10.0 mi West 27.6 mph 33.4 mph N/A   Scattered Clouds
2:13 PM 37.4 °F 26.1 °F 30.2 °F 75% 29.81 in 10.0 mi West 24.2 mph 27.6 mph N/A   Scattered Clouds
2:32 PM 39.2 °F 29.0 °F 30.2 °F 70% 29.81 in 10.0 mi West 21.9 mph 31.1 mph N/A   Scattered Clouds
2:53 PM 39.2 °F 29.0 °F 30.2 °F 70% 29.81 in 10.0 mi West 21.9 mph 29.9 mph N/A   Scattered Clouds
3:13 PM 39.2 °F 27.6 °F 30.2 °F 70% 29.83 in 10.0 mi West 28.8 mph 33.4 mph N/A   Scattered Clouds
3:32 PM 39.2 °F 28.0 °F 30.2 °F 70% 29.83 in 10.0 mi West 26.5 mph 33.4 mph N/A   Mostly Cloudy
3:53 PM 39.2 °F 28.5 °F 30.2 °F 70% 29.84 in 10.0 mi West 24.2 mph 34.5 mph N/A   Mostly Cloudy
4:13 PM 39.2 °F 28.7 °F 30.2 °F 70% 29.84 in 10.0 mi West 23.0 mph 33.4 mph N/A   Scattered Clouds
4:32 PM 39.2 °F 29.3 °F 30.2 °F 70% 29.85 in 10.0 mi West 20.7 mph - N/A   Clear
4:53 PM 39.2 °F 29.0 °F 30.2 °F 70% 29.87 in 10.0 mi West 21.9 mph 31.1 mph N/A   Scattered Clouds
5:12 PM 39.2 °F 29.0 °F 30.2 °F 70% 29.86 in 10.0 mi West 21.9 mph 31.1 mph N/A   Scattered Clouds
5:33 PM 39.2 °F 28.7 °F 30.2 °F 70% 29.86 in 10.0 mi West 23.0 mph 29.9 mph N/A   Clear
5:53 PM 39.2 °F 28.7 °F 30.2 °F 70% 29.88 in 10.0 mi West 23.0 mph 27.6 mph N/A   Clear
6:12 PM 39.2 °F 29.3 °F 30.2 °F 70% 29.89 in 10.0 mi West 20.7 mph 25.3 mph N/A   Clear
6:33 PM 39.2 °F 29.3 °F 30.2 °F 70% 29.91 in 10.0 mi West 20.7 mph 28.8 mph N/A   Clear
6:53 PM 37.4 °F 27.8 °F 30.2 °F 75% 29.91 in 10.0 mi West 17.3 mph - N/A   Clear
7:12 PM 37.4 °F 27.8 °F 30.2 °F 75% 29.91 in 10.0 mi West 17.3 mph - N/A   Clear
7:33 PM 37.4 °F 28.9 °F 30.2 °F 75% 29.91 in 10.0 mi West 13.8 mph - N/A   Clear
7:53 PM 35.6 °F 27.1 °F 30.2 °F 81% 29.91 in 10.0 mi West 12.7 mph - N/A   Clear
8:12 PM 35.6 °F 27.1 °F 30.2 °F 81% 29.93 in 10.0 mi West 12.7 mph - N/A   Clear
8:33 PM 35.6 °F 26.2 °F 30.2 °F 81% 29.93 in 10.0 mi West 15.0 mph - N/A   Clear
8:53 PM 35.6 °F 27.1 °F 30.2 °F 81% 29.95 in 10.0 mi West 12.7 mph - N/A   Clear
9:33 PM 35.6 °F 27.5 °F 30.2 °F 81% 29.98 in 10.0 mi West 11.5 mph - N/A   Clear
9:53 PM 35.6 °F 26.6 °F 30.2 °F 81% 29.99 in 10.0 mi West 13.8 mph - N/A   Clear
10:12 PM 35.6 °F 28.0 °F 30.2 °F 81% 29.99 in 10.0 mi West 10.4 mph - N/A   Clear
10:33 PM 35.6 °F 27.5 °F 30.2 °F 81% 30.00 in 10.0 mi West 11.5 mph - N/A   Clear
10:53 PM 35.6 °F 27.5 °F 30.2 °F 81% 30.00 in 10.0 mi West 11.5 mph - N/A   Clear
11:12 PM 35.6 °F 26.6 °F 30.2 °F 81% 30.01 in 10.0 mi West 13.8 mph - N/A   Clear
11:33 PM 35.6 °F 27.5 °F 30.2 °F 81% 30.01 in 10.0 mi West 11.5 mph - N/A   Clear
11:53 PM 35.6 °F 26.6 °F 28.4 °F 75% 30.02 in 10.0 mi West 13.8 mph - N/A   Clear